Location: Cheching
(60.0667°N, 164.2167°W)
Time: 11:15:05
(UTC+00:00)

UNISAT 6 - Pass Details

Date: 16 January 2021
Orbit: 607 x 687 km, 97.7° (Epoch: 24 February)

Event Time Altitude Azimuth Distance (km) Brightness Sun altitude
Rises 17:55:14 0° 179° (S) 2,861 ? -12.1°
Reaches altitude 10° 17:57:28 10° 185° (S) 1,964 ? -11.8°
Maximum altitude 18:01:35 48° 260° (W) 808 ? -11.4°
Drops below altitude 10° 18:05:48 10° 336° (NNW) 2,002 ? -10.9°
Enters shadow 18:06:54 - 340° (NNW) 2,436 ? -10.8°
